Temp
10 10 11 12 12 12 12 12 12 11 11 11 11 12 12 12 12 13 13 13 13 13 13 13 14 14 14 14 15 15 15 16
10 10 10 11 11 11 11 11 11 11 11 11 12 11 12 12 13 13 13 13 13 13 13 13 13 13 13 14 14 15 15 16
11 10 10 10 9 11 10 11 11 11 10 11 10 10 10 10 12 12 12 12 13 13 13 13 13 13 13 13 14 15 15 16
11 10 10 10 10 9 10 10 9 9 9 9 10 10 10 10 11 11 11 11 11 11 11 11 11 12 13 13 13 13 14 14
11 10 10 10 10 11 11 10 10 9 9 9 9 9 10 11 11 11 11 10 11 11 11 11 10 10 11 11 11 13 13 12
11 10 11 10 11 11 10 10 10 9 8 9 9 9 10 10 10 10 11 11 10 10 11 10 10 10 10 10 10 11 12 12
11 10 9 10 10 9 9 9 9 9 8 9 9 9 9 10 10 10 10 10 10 10 10 10 11 11 10 10 10 10 10 10
10 9 9 10 10 9 9 9 9 9 8 8 8 8 9 9 9 9 9 9 9 9 9 10 10 10 10 10 10 9 9 9
10 9 9 9 9 9 9 9 9 9 8 9 8 8 8 9 9 9 9 9 9 9 9 10 10 10 10 11 10 10 9 9
10 10 9 9 9 9 9 9 9 9 9 8 8 8 7 9 9 8 8 9 8 8 9 9 9 10 10 10 10 10 9 9
10 10 9 9 8 9 9 8 9 9 9 8 8 8 8 8 8 7 8 8 8 7 7 8 8 9 9 10 10 10 10 9
11 10 9 9 8 8 9 9 9 9 9 8 8 8 8 7 8 7 7 7 7 6 6 7 8 8 8 9 9 10 9 9
11 10 9 9 9 10 10 10 9 9 8 8 9 9 9 9 7 7 8 6 6 6 6 6 7 7 7 8 9 10 10 9
11 11 10 9 10 10 11 10 10 9 8 9 9 8 8 7 8 8 8 7 7 7 7 6 5 6 6 7 8 9 9 8
11 11 10 9 10 10 10 10 9 9 8 7 8 8 8 8 8 8 8 7 7 6 5 5 4 5 5 6 6 7 6 7
11 11 11 10 10 10 10 10 11 10 9 7 7 8 8 7 7 7 7 6 6 5 4 4 4 4 4 4 4 4 5 5
11 11 11 10 10 10 10 10 11 9 7 8 7 8 7 7 7 7 6 4 4 4 3 3 2 2 2 2 3 3 4 4
11 11 11 10 10 9 10 10 10 9 7 6 6 5 4 5 5 5 3 3 3 3 2 1 1 1 1 1 1 2 2 2
11 11 11 10 10 9 9 9 9 8 8 7 6 6 5 4 4 3 2 2 1 1 0 0 0 -0 -1 -0 0 0 0 0
11 11 11 11 10 9 9 9 8 8 7 7 6 6 5 3 3 2 1 1 0 -0 -1 -0 -1 -1 -1 -1 -1 -1 -1 -1
Height
1585 1585 1582 1581 1580 1579 1578 1578 1578 1578 1577 1577 1576 1575 1574 1572 1571 1569 1568 1567 1565 1564 1563 1562 1561 1561 1560 1560 1560 1560 1560 1560
1586 1586 1584 1582 1581 1580 1579 1579 1579 1579 1578 1577 1576 1575 1573 1572 1571 1569 1568 1566 1565 1564 1563 1562 1562 1561 1560 1559 1559 1559 1560 1560
1586 1585 1583 1583 1583 1581 1581 1580 1580 1579 1579 1578 1578 1577 1577 1574 1572 1570 1569 1567 1566 1564 1563 1562 1561 1561 1559 1559 1559 1560 1560 1559
1586 1584 1584 1585 1586 1584 1583 1583 1582 1581 1580 1580 1580 1578 1577 1577 1574 1572 1571 1569 1568 1566 1564 1563 1562 1561 1561 1560 1559 1558 1558 1553
1587 1583 1583 1586 1585 1587 1588 1586 1585 1583 1581 1582 1580 1581 1580 1580 1578 1577 1575 1572 1571 1570 1567 1565 1563 1561 1560 1559 1557 1557 1555 1551
1586 1584 1584 1584 1588 1589 1588 1588 1587 1586 1584 1585 1584 1583 1583 1581 1580 1579 1578 1575 1572 1571 1570 1568 1566 1563 1561 1560 1557 1556 1555 1554
1587 1585 1585 1585 1587 1587 1588 1589 1588 1588 1586 1584 1585 1585 1584 1584 1582 1581 1579 1578 1575 1573 1570 1569 1567 1566 1562 1561 1559 1557 1555 1553
1587 1586 1585 1585 1586 1587 1588 1589 1590 1589 1588 1587 1586 1586 1586 1586 1584 1583 1581 1579 1577 1575 1572 1570 1568 1567 1565 1562 1560 1558 1556 1553
1586 1586 1586 1586 1587 1589 1590 1592 1592 1591 1590 1588 1587 1587 1587 1587 1586 1584 1583 1581 1579 1577 1574 1571 1569 1567 1566 1564 1562 1559 1556 1554
1585 1587 1587 1589 1589 1591 1592 1592 1593 1593 1593 1591 1589 1588 1587 1589 1588 1585 1584 1583 1580 1577 1574 1571 1569 1567 1565 1564 1561 1559 1556 1555
1586 1587 1588 1589 1589 1592 1592 1592 1594 1594 1594 1593 1590 1589 1588 1589 1588 1586 1586 1584 1580 1577 1574 1572 1569 1567 1564 1562 1559 1557 1555 1554
1585 1587 1587 1588 1590 1591 1593 1594 1595 1595 1595 1592 1591 1591 1589 1589 1588 1586 1585 1583 1580 1577 1574 1573 1570 1567 1563 1561 1556 1555 1553 1553
1583 1585 1586 1587 1589 1592 1594 1595 1595 1595 1594 1592 1591 1591 1588 1588 1588 1586 1584 1583 1579 1577 1574 1572 1570 1567 1562 1559 1555 1553 1551 1551
1581 1583 1584 1586 1589 1592 1593 1595 1595 1594 1592 1590 1590 1590 1589 1588 1586 1584 1582 1581 1578 1575 1572 1570 1569 1566 1563 1559 1555 1553 1550 1548
1578 1580 1582 1585 1589 1590 1591 1592 1592 1593 1592 1591 1590 1589 1588 1586 1585 1583 1581 1580 1577 1574 1572 1569 1567 1566 1563 1562 1557 1554 1551 1547
1576 1578 1580 1583 1585 1588 1590 1590 1592 1592 1592 1590 1588 1588 1587 1585 1583 1581 1579 1578 1575 1573 1571 1568 1565 1564 1562 1560 1558 1556 1552 1544
1573 1576 1578 1580 1582 1585 1587 1589 1591 1591 1590 1588 1587 1585 1585 1583 1581 1579 1577 1575 1573 1570 1568 1566 1564 1562 1561 1557 1555 1553 1551 1547
1570 1573 1576 1578 1579 1581 1584 1587 1589 1589 1589 1589 1588 1585 1583 1580 1579 1577 1575 1573 1571 1569 1566 1564 1562 1560 1558 1555 1553 1550 1547 1545
1567 1570 1573 1576 1578 1579 1582 1584 1586 1587 1587 1587 1587 1586 1585 1581 1577 1575 1574 1571 1569 1566 1564 1562 1560 1557 1554 1552 1550 1548 1546 1543
1564 1566 1570 1574 1576 1577 1580 1582 1584 1585 1584 1586 1585 1584 1583 1577 1575 1574 1572 1569 1567 1564 1561 1559 1557 1554 1551 1549 1546 1544 1542 1540
Wind_Speed
4 5 9 9 7 5 4 3 3 3 4 4 6 7 8 8 8 9 9 9 8 9 8 8 8 8 9 8 8 7 7 5
4 4 5 5 7 7 8 7 6 5 5 6 7 11 11 9 9 9 10 10 9 10 10 10 9 9 10 10 8 5 6 11
3 3 4 6 7 8 10 10 11 11 11 10 11 8 9 12 14 13 14 12 13 12 11 10 8 13 14 11 6 7 8 11
3 5 5 6 5 7 9 9 9 8 9 10 10 13 15 13 17 19 21 20 22 22 20 17 13 10 8 10 7 10 7 11
4 5 6 7 6 6 5 6 7 10 13 12 13 12 12 11 13 13 14 18 16 15 16 16 17 15 12 10 9 7 9 12
7 6 7 10 7 6 7 7 9 10 12 12 13 12 13 14 14 14 15 16 17 16 15 17 16 16 15 14 13 9 8 10
7 7 7 8 9 8 9 9 10 11 12 13 12 12 14 14 15 15 16 16 17 17 16 15 14 14 15 14 13 12 11 6
8 7 8 9 9 10 10 10 10 10 11 12 14 13 13 14 14 14 15 16 16 16 17 17 16 15 14 15 12 11 11 11
10 8 8 9 10 10 9 9 9 9 10 13 14 12 13 13 13 14 14 15 16 16 16 15 15 16 15 14 13 12 10 10
11 9 9 9 9 8 7 8 7 7 6 8 10 12 12 11 12 14 15 15 16 17 17 17 15 16 17 16 14 13 13 10
12 11 10 9 9 7 7 8 5 5 6 5 9 11 12 11 11 13 13 13 15 18 18 18 18 18 20 17 17 16 13 13
13 12 11 11 9 7 5 5 4 4 4 3 8 8 11 10 10 13 13 14 15 18 19 17 16 18 20 20 17 15 11 12
15 14 14 12 9 7 6 5 5 3 2 3 5 6 8 9 9 11 16 13 17 18 18 17 16 17 19 21 17 12 10 12
17 15 16 14 10 9 7 6 5 4 3 1 2 5 7 9 12 13 17 14 17 21 22 20 15 16 18 16 19 15 11 19
18 17 16 16 12 10 9 8 7 4 2 1 3 5 9 11 13 15 17 16 18 19 19 19 16 14 14 12 12 17 23 14
19 18 17 16 15 12 12 9 7 7 6 5 6 8 10 12 14 15 16 16 18 16 15 17 16 15 15 11 12 15 19 19
20 19 18 17 16 15 13 11 9 6 6 6 8 11 10 12 14 16 16 13 16 16 17 17 15 15 14 15 15 14 14 18
20 20 19 18 17 16 14 12 10 9 7 5 5 5 7 12 12 14 13 16 16 16 16 14 14 14 13 13 13 15 16 18
21 20 20 19 18 15 14 13 12 11 10 7 8 7 6 8 13 12 13 15 15 15 15 13 12 14 14 13 12 13 15 17
23 22 20 19 17 15 13 12 11 10 10 9 6 7 7 12 12 13 13 13 14 14 15 13 13 14 15 14 15 14 15 16
Wind_Direction
73 41 356 349 354 15 37 49 47 28 17 5 2 359 354 352 349 346 346 344 342 341 337 331 325 324 326 321 308 307 312 288
75 46 19 14 22 49 57 54 49 40 25 14 14 18 5 4 358 357 355 350 344 335 330 327 328 329 323 320 326 350 335 311
104 50 56 54 46 50 52 55 49 45 36 44 49 47 48 36 33 29 26 22 18 7 358 349 6 356 347 335 341 325 301 293
99 94 74 71 70 64 53 56 59 67 55 67 46 49 46 37 30 32 26 37 24 21 24 24 17 11 343 342 325 310 335 288
90 83 94 91 95 84 73 65 65 51 60 64 58 56 54 43 37 31 30 24 27 29 18 19 17 20 12 358 350 347 291 296
123 109 96 111 94 88 75 79 70 67 71 60 55 53 47 44 43 35 32 29 29 29 21 19 19 14 15 13 9 5 333 331
129 110 97 91 97 94 94 87 86 73 64 68 62 57 50 46 40 36 31 28 24 22 21 18 14 9 8 12 11 7 9 359
137 119 110 108 115 109 96 90 80 77 70 66 58 58 54 42 36 31 27 22 22 17 18 14 11 6 356 353 355 0 357 360
150 134 123 119 108 104 107 103 91 79 68 67 63 60 43 43 30 25 22 16 17 13 13 10 5 3 353 341 340 335 339 347
158 157 143 127 129 114 115 109 103 93 77 61 58 51 49 36 29 20 23 14 10 10 5 3 0 359 350 337 326 315 313 328
170 166 156 146 140 144 142 121 109 96 77 52 48 36 37 42 24 19 21 14 9 9 5 359 358 351 348 343 324 314 297 300
180 176 176 165 164 154 151 141 116 98 82 51 53 28 31 44 20 17 22 7 8 5 4 357 356 345 346 338 335 317 306 291
188 186 189 181 179 169 172 167 158 128 91 62 49 36 31 31 22 13 15 7 0 359 358 354 353 346 345 344 343 332 303 317
195 192 194 188 188 183 185 187 172 184 157 147 16 8 14 9 10 5 2 4 353 353 351 354 348 353 344 340 339 335 349 322
198 195 196 194 192 195 189 190 191 186 185 125 312 332 349 357 354 354 355 353 349 348 343 348 343 346 344 338 335 324 318 316
199 198 198 199 197 202 201 202 210 214 197 209 284 307 328 339 342 342 344 347 341 342 336 341 340 338 337 330 318 308 312 310
200 200 199 200 206 198 215 212 222 221 214 255 263 292 311 322 330 334 337 342 334 336 334 336 337 331 329 324 319 313 307 302
201 200 202 203 206 209 209 216 217 221 228 246 259 264 301 313 329 333 336 331 327 329 329 330 326 322 318 320 315 312 310 307
203 202 204 207 209 209 206 211 217 223 235 252 251 278 290 290 321 323 326 324 325 325 325 322 321 312 315 312 308 302 302 300
206 205 204 207 207 204 207 209 216 224 237 242 257 268 281 290 309 319 322 322 319 318 321 313 312 308 307 305 303 303 300 299